SAOCOM 1A

Last updated on Tue Sep 22 2026 00:02:20 GMT+0000 (Coordinated Universal Time)

1 43641U 18076A 26264.60863963 .00000284 00000+0 42232-4 0 9991 2 43641 97.8897 89.9734 0001422 85.5189 274.6187 14.82148422430382
UTC large
Height (km)
Speed (km/s)
/
Latitude / Longitude
Inclination (degrees)
Orbital Period (minutes)
Azimuth
Elevation
Range (km)
Doppler Factor

Next 0 passes for location: London (51.5072 / 0.1276)

No passes found over London.
SAOCOM 1A